Location: *
(49.3500°N, 12.6000°E)
Time: 21:08:39
(UTC+00:00)

ADEOS Rocket - Pass Details

Date: 18 October 2019
Orbit: 859 x 1306 km, 98.7° (Epoch: 13 November)

Event Time Altitude Azimuth Distance (km) Brightness Sun altitude
Rises 18:35:22 0° 16° (NNE) 4,310 6.3 -23.6°
Reaches altitude 10° 18:38:12 10° 20° (NNE) 3,325 5.7 -24.1°
Maximum altitude 18:45:50 58° 99° (E) 1,445 3.5 -25.3°
Drops below altitude 10° 18:52:56 10° 177° (S) 3,103 5.4 -26.4°
Sets 18:55:30 0° 182° (S) 4,005 6.1 -26.8°
